一网星座-0347星 (ONEWEB-0347 )

导读 | 豆包AI

ONEWEB-0347是英国OneWeb星座的通信卫星,于2021年10月14日发射入轨,是OneWeb全球低轨卫星互联网项目的组成部分。OneWeb旨在打造近地轨道卫星互联网络,为偏远地区、航空航海等场景提供宽带接入服务。该卫星运行于约1200公里的近地轨道,依托Ku波段频谱开展通信服务,助力构建覆盖全球的天基通信基础设施,目前卫星星座已完成大部分部署,推动欧洲卫星互联网建设进程。

基本信息
目录编号:
49280
目录名称:
ONEWEB-0347
国际标识:
2021-090B
轨道中心:
EARTH
卫星名称:
一网星座-0347星
卫星全名:
一网星座-0347星 (ONEWEB-0347 )
卫星状态:
在轨 (已飞行1659 天)
发射日期:
2021-10-14 UTC
国别 :
英国 (GB)
星等 :
--
轨道信息
数据来源 国际轨道数据 AOE轨道数据
星历时间 2026-04-30T08:21:26+0800
8小时前
查看轨道信息
2026-04-28T16:00:00+0800
2天前
查看轨道信息
半长轴 7559.903km 7559.899km
偏心率 0.000202 0.0001974
轨道倾角 87.915° 87.915°
近地点辐角 93.423° 102.785°
升交点赤经 284.053° 284.389°
平近点角 266.713° 186.551°
近地点 1180.238km 1180.269km
远地点 1183.294km 1183.255km
周期 109.027分钟 109.027分钟
每日圈数 13.20774 13.207748
详细信息
平衡模式:
三轴稳定
覆盖范围:
全球
运营商:
一网卫星公司
运营商所在国:
英国
制造商(研发单位):
一网卫星公司
制造商所在国:
英国
使用方式:
暂无
卫星简介
OneWeb卫星网络由648颗重约125公斤的微型卫星组成,运行在1200公里的轨道上。 每颗卫星都能够提供至少每秒8千兆位的吞吐量,以使用其高吞吐量的Ku频段有效载荷为家庭和移动平台提供互联网接入。该卫星仍在工作。
2D轨道图
3D轨道图
轨道高度分析图
轨道倾角分析图
轨道综合分析图
查看轨道综合分析图